Year,Month,Day,Hour,Minute,Value (Times are PST for temperature in C)
2015,08,21,00,00,16.60
2015,08,21,00,01,16.60
2015,08,21,00,02,16.60
2015,08,21,00,03,16.60
2015,08,21,00,04,16.60
2015,08,21,00,05,16.60
2015,08,21,00,06,16.60
2015,08,21,00,07,16.60
2015,08,21,00,08,16.60
2015,08,21,00,09,16.60
2015,08,21,00,10,16.60
2015,08,21,00,11,16.50
2015,08,21,00,12,16.50
2015,08,21,00,13,16.50
2015,08,21,00,14,16.50
2015,08,21,00,15,16.50
2015,08,21,00,16,16.40
2015,08,21,00,17,16.40
2015,08,21,00,18,16.40
2015,08,21,00,19,16.40
2015,08,21,00,20,16.40
2015,08,21,00,21,16.40
2015,08,21,00,22,16.30
2015,08,21,00,23,16.30
2015,08,21,00,24,16.30
2015,08,21,00,25,16.30
2015,08,21,00,26,16.30
2015,08,21,00,27,16.30
2015,08,21,00,28,16.30
2015,08,21,00,29,16.30
2015,08,21,00,30,16.30
2015,08,21,00,31,16.30
2015,08,21,00,32,16.30
2015,08,21,00,33,16.30
2015,08,21,00,34,16.30
2015,08,21,00,35,16.30
2015,08,21,00,36,16.30
2015,08,21,00,37,16.30
2015,08,21,00,38,16.30
2015,08,21,00,39,16.20
2015,08,21,00,40,16.20
2015,08,21,00,41,16.20
2015,08,21,00,42,16.20
2015,08,21,00,43,16.20
2015,08,21,00,44,16.20
2015,08,21,00,45,16.20
2015,08,21,00,46,16.20
2015,08,21,00,47,16.20
2015,08,21,00,48,16.10
2015,08,21,00,49,16.10
2015,08,21,00,50,16.10
2015,08,21,00,51,16.10
2015,08,21,00,52,16.00
2015,08,21,00,53,16.00
2015,08,21,00,54,15.90
2015,08,21,00,55,15.90
2015,08,21,00,56,15.90
2015,08,21,00,57,15.80
2015,08,21,00,58,15.80
2015,08,21,00,59,15.80
2015,08,21,01,00,15.80
2015,08,21,01,01,15.70
2015,08,21,01,02,15.70
2015,08,21,01,03,15.70
2015,08,21,01,04,15.60
2015,08,21,01,05,15.60
2015,08,21,01,06,15.60
2015,08,21,01,07,15.60
2015,08,21,01,08,15.50
2015,08,21,01,09,15.50
2015,08,21,01,10,15.40
2015,08,21,01,11,15.40
2015,08,21,01,12,15.40
2015,08,21,01,13,15.30
2015,08,21,01,14,15.30
2015,08,21,01,15,15.30
2015,08,21,01,16,15.30
2015,08,21,01,17,15.20
2015,08,21,01,18,15.20
2015,08,21,01,19,15.20
2015,08,21,01,20,15.20
2015,08,21,01,21,15.10
2015,08,21,01,22,15.10
2015,08,21,01,23,15.10
2015,08,21,01,24,15.00
2015,08,21,01,25,15.00
2015,08,21,01,26,15.00
2015,08,21,01,27,14.90
2015,08,21,01,28,14.90
2015,08,21,01,29,14.90
2015,08,21,01,30,14.80
2015,08,21,01,31,14.80
2015,08,21,01,32,14.80
2015,08,21,01,33,14.80
2015,08,21,01,34,14.70
2015,08,21,01,35,14.70
2015,08,21,01,36,14.70
2015,08,21,01,37,14.70
2015,08,21,01,38,14.70
2015,08,21,01,39,14.60
2015,08,21,01,40,14.60
2015,08,21,01,41,14.60
2015,08,21,01,42,14.60
2015,08,21,01,43,14.60
2015,08,21,01,44,14.50
2015,08,21,01,45,14.50
2015,08,21,01,46,14.50
2015,08,21,01,47,14.50
2015,08,21,01,48,14.40
2015,08,21,01,49,14.40
2015,08,21,01,50,14.40
2015,08,21,01,51,14.40
2015,08,21,01,52,14.40
2015,08,21,01,53,14.30
2015,08,21,01,54,14.30
2015,08,21,01,55,14.30
2015,08,21,01,56,14.30
2015,08,21,01,57,14.30
2015,08,21,01,58,14.30
2015,08,21,01,59,14.30
2015,08,21,02,00,14.30
2015,08,21,02,01,14.30
2015,08,21,02,02,14.30
2015,08,21,02,03,14.30
2015,08,21,02,04,14.30
2015,08,21,02,05,14.30
2015,08,21,02,06,14.30
2015,08,21,02,07,14.30
2015,08,21,02,08,14.30
2015,08,21,02,09,14.30
2015,08,21,02,10,14.30
2015,08,21,02,11,14.30
2015,08,21,02,12,14.30
2015,08,21,02,13,14.30
2015,08,21,02,14,14.30
2015,08,21,02,15,14.30
2015,08,21,02,16,14.30
2015,08,21,02,17,14.20
2015,08,21,02,18,14.20
2015,08,21,02,19,14.20
2015,08,21,02,20,14.20
2015,08,21,02,21,14.20
2015,08,21,02,22,14.20
2015,08,21,02,23,14.10
2015,08,21,02,24,14.10
2015,08,21,02,25,14.10
2015,08,21,02,26,14.10
2015,08,21,02,27,14.00
2015,08,21,02,28,14.00
2015,08,21,02,29,14.00
2015,08,21,02,30,14.00
2015,08,21,02,31,13.90
2015,08,21,02,32,13.90
2015,08,21,02,33,13.90
2015,08,21,02,34,13.90
2015,08,21,02,35,13.90
2015,08,21,02,36,13.90
2015,08,21,02,37,13.90
2015,08,21,02,38,13.90
2015,08,21,02,39,13.90
2015,08,21,02,40,13.90
2015,08,21,02,41,13.90
2015,08,21,02,42,13.90
2015,08,21,02,43,13.80
2015,08,21,02,44,13.80
2015,08,21,02,45,13.80
2015,08,21,02,46,13.80
2015,08,21,02,47,13.80
2015,08,21,02,48,13.80
2015,08,21,02,49,13.80
2015,08,21,02,50,13.70
2015,08,21,02,51,13.70
2015,08,21,02,52,13.70
2015,08,21,02,53,13.70
2015,08,21,02,54,13.60
2015,08,21,02,55,13.60
2015,08,21,02,56,13.60
2015,08,21,02,57,13.60
2015,08,21,02,58,13.50
2015,08,21,02,59,13.50
2015,08,21,03,00,13.50
2015,08,21,03,01,13.40
2015,08,21,03,02,13.40
2015,08,21,03,03,13.40
2015,08,21,03,04,13.40
2015,08,21,03,05,13.30
2015,08,21,03,06,13.30
2015,08,21,03,07,13.30
2015,08,21,03,08,13.30
2015,08,21,03,09,13.30
2015,08,21,03,10,13.30
2015,08,21,03,11,13.30
2015,08,21,03,12,13.30
2015,08,21,03,13,13.30
2015,08,21,03,14,13.30
2015,08,21,03,15,13.30
2015,08,21,03,16,13.30
2015,08,21,03,17,13.20
2015,08,21,03,18,13.20
2015,08,21,03,19,13.20
2015,08,21,03,20,13.20
2015,08,21,03,21,13.10
2015,08,21,03,22,13.10
2015,08,21,03,23,13.10
2015,08,21,03,24,13.10
2015,08,21,03,25,13.10
2015,08,21,03,26,13.10
2015,08,21,03,27,13.00
2015,08,21,03,28,13.00
2015,08,21,03,29,13.00
2015,08,21,03,30,12.90
2015,08,21,03,31,12.90
2015,08,21,03,32,12.90
2015,08,21,03,33,12.90
2015,08,21,03,34,12.80
2015,08,21,03,35,12.80
2015,08,21,03,36,12.80
2015,08,21,03,37,12.70
2015,08,21,03,38,12.70
2015,08,21,03,39,12.70
2015,08,21,03,40,12.70
2015,08,21,03,41,12.60
2015,08,21,03,42,12.60
2015,08,21,03,43,12.60
2015,08,21,03,44,12.60
2015,08,21,03,45,12.50
2015,08,21,03,46,12.50
2015,08,21,03,47,12.40
2015,08,21,03,48,12.40
2015,08,21,03,49,12.40
2015,08,21,03,50,12.40
2015,08,21,03,51,12.30
2015,08,21,03,52,12.30
2015,08,21,03,53,12.30
2015,08,21,03,54,12.30
2015,08,21,03,55,12.30
2015,08,21,03,56,12.30
2015,08,21,03,57,12.20
2015,08,21,03,58,12.20
2015,08,21,03,59,12.20
2015,08,21,04,00,12.20
2015,08,21,04,01,12.20
2015,08,21,04,02,12.20
2015,08,21,04,03,12.20
2015,08,21,04,04,12.20
2015,08,21,04,05,12.30
2015,08,21,04,06,12.30
2015,08,21,04,07,12.30
2015,08,21,04,08,12.30
2015,08,21,04,09,12.30
2015,08,21,04,10,12.30
2015,08,21,04,11,12.30
2015,08,21,04,12,12.30
2015,08,21,04,13,12.30
2015,08,21,04,14,12.30
2015,08,21,04,15,12.20
2015,08,21,04,16,12.20
2015,08,21,04,17,12.20
2015,08,21,04,18,12.20
2015,08,21,04,19,12.10
2015,08,21,04,20,12.10
2015,08,21,04,21,12.10
2015,08,21,04,22,12.10
2015,08,21,04,23,12.10
2015,08,21,04,24,12.10
2015,08,21,04,25,12.10
2015,08,21,04,26,12.10
2015,08,21,04,27,12.00
2015,08,21,04,28,12.00
2015,08,21,04,29,12.00
2015,08,21,04,30,12.00
2015,08,21,04,31,12.00
2015,08,21,04,32,12.10
2015,08,21,04,33,12.10
2015,08,21,04,34,12.10
2015,08,21,04,35,12.10
2015,08,21,04,36,12.10
2015,08,21,04,37,12.10
2015,08,21,04,38,12.20
2015,08,21,04,39,12.20
2015,08,21,04,40,12.20
2015,08,21,04,41,12.30
2015,08,21,04,42,12.40
2015,08,21,04,43,12.40
2015,08,21,04,44,12.40
2015,08,21,04,45,12.40
2015,08,21,04,46,12.40
2015,08,21,04,47,12.50
2015,08,21,04,48,12.50
2015,08,21,04,49,12.50
2015,08,21,04,50,12.50
2015,08,21,04,51,12.50
2015,08,21,04,52,12.40
2015,08,21,04,53,12.40
2015,08,21,04,54,12.40
2015,08,21,04,55,12.40
2015,08,21,04,56,12.40
2015,08,21,04,57,12.40
2015,08,21,04,58,12.40
2015,08,21,04,59,12.40
2015,08,21,05,00,12.50
2015,08,21,05,01,12.50
2015,08,21,05,02,12.50
2015,08,21,05,03,12.50
2015,08,21,05,04,12.50
2015,08,21,05,05,12.40
2015,08,21,05,06,12.40
2015,08,21,05,07,12.40
2015,08,21,05,08,12.30
2015,08,21,05,09,12.30
2015,08,21,05,10,12.30
2015,08,21,05,11,12.20
2015,08,21,05,12,12.10
2015,08,21,05,13,12.10
2015,08,21,05,14,12.10
2015,08,21,05,15,12.10
2015,08,21,05,16,12.10
2015,08,21,05,17,12.10
2015,08,21,05,18,12.10
2015,08,21,05,19,12.10
2015,08,21,05,20,12.10
2015,08,21,05,21,12.10
2015,08,21,05,22,12.10
2015,08,21,05,23,12.10
2015,08,21,05,24,12.10
2015,08,21,05,25,12.10
2015,08,21,05,26,12.10
2015,08,21,05,27,12.10
2015,08,21,05,28,12.10
2015,08,21,05,29,12.10
2015,08,21,05,30,12.10
2015,08,21,05,31,12.10
2015,08,21,05,32,12.00
2015,08,21,05,33,12.00
2015,08,21,05,34,12.00
2015,08,21,05,35,12.00
2015,08,21,05,36,11.90
2015,08,21,05,37,11.90
2015,08,21,05,38,11.90
2015,08,21,05,39,11.80
2015,08,21,05,40,11.80
2015,08,21,05,41,11.80
2015,08,21,05,42,11.80
2015,08,21,05,43,11.80
2015,08,21,05,44,11.70
2015,08,21,05,45,11.70
2015,08,21,05,46,11.60
2015,08,21,05,47,11.60
2015,08,21,05,48,11.60
2015,08,21,05,49,11.50
2015,08,21,05,50,11.50
2015,08,21,05,51,11.40
2015,08,21,05,52,11.40
2015,08,21,05,53,11.40
2015,08,21,05,54,11.30
2015,08,21,05,55,11.30
2015,08,21,05,56,11.30
2015,08,21,05,57,11.20
2015,08,21,05,58,11.20
2015,08,21,05,59,11.20
2015,08,21,06,00,11.10
2015,08,21,06,01,11.10
2015,08,21,06,02,11.10
2015,08,21,06,03,11.10
2015,08,21,06,04,11.00
2015,08,21,06,05,11.00
2015,08,21,06,06,11.00
2015,08,21,06,07,10.90
2015,08,21,06,08,10.90
2015,08,21,06,09,10.90
2015,08,21,06,10,10.80
2015,08,21,06,11,10.90
2015,08,21,06,12,10.80
2015,08,21,06,13,10.80
2015,08,21,06,14,10.90
2015,08,21,06,15,10.90
2015,08,21,06,16,10.90
2015,08,21,06,17,10.80
2015,08,21,06,18,10.80
2015,08,21,06,19,10.80
2015,08,21,06,20,10.80
2015,08,21,06,21,10.80
2015,08,21,06,22,10.80
2015,08,21,06,23,10.80
2015,08,21,06,24,10.80
2015,08,21,06,25,10.80
2015,08,21,06,26,10.90
2015,08,21,06,27,10.90
2015,08,21,06,28,10.90
2015,08,21,06,29,10.90
2015,08,21,06,30,10.90
2015,08,21,06,31,11.00
2015,08,21,06,32,11.00
2015,08,21,06,33,11.10
2015,08,21,06,34,11.10
2015,08,21,06,35,11.10
2015,08,21,06,36,11.20
2015,08,21,06,37,11.20
2015,08,21,06,38,11.20
2015,08,21,06,39,11.30
2015,08,21,06,40,11.30
2015,08,21,06,41,11.30
2015,08,21,06,42,11.40
2015,08,21,06,43,11.60
2015,08,21,06,44,11.70
2015,08,21,06,45,11.90
2015,08,21,06,46,12.00
2015,08,21,06,47,12.20
2015,08,21,06,48,12.30
2015,08,21,06,49,12.40
2015,08,21,06,50,12.50
2015,08,21,06,51,12.50
2015,08,21,06,52,12.60
2015,08,21,06,53,12.70
2015,08,21,06,54,12.70
2015,08,21,06,55,12.80
2015,08,21,06,56,12.90
2015,08,21,06,57,12.90
2015,08,21,06,58,12.90
2015,08,21,06,59,13.00
2015,08,21,07,00,13.00
2015,08,21,07,01,13.10
2015,08,21,07,02,13.10
2015,08,21,07,03,13.20
2015,08,21,07,04,13.20
2015,08,21,07,05,13.20
2015,08,21,07,06,13.30
2015,08,21,07,07,13.30
2015,08,21,07,08,13.30
2015,08,21,07,09,13.40
2015,08,21,07,10,13.40
2015,08,21,07,11,13.50
2015,08,21,07,12,13.50
2015,08,21,07,13,13.60
2015,08,21,07,14,13.60
2015,08,21,07,15,13.70
2015,08,21,07,16,13.70
2015,08,21,07,17,13.80
2015,08,21,07,18,13.80
2015,08,21,07,19,13.90
2015,08,21,07,20,13.90
2015,08,21,07,21,14.00
2015,08,21,07,22,14.00
2015,08,21,07,23,14.10
2015,08,21,07,24,14.10
2015,08,21,07,25,14.10
2015,08,21,07,26,14.10
2015,08,21,07,27,14.20
2015,08,21,07,28,14.20
2015,08,21,07,29,14.20
2015,08,21,07,30,14.20
2015,08,21,07,31,14.20
2015,08,21,07,32,14.30
2015,08,21,07,33,14.30
2015,08,21,07,34,14.30
2015,08,21,07,35,14.30
2015,08,21,07,36,14.30
2015,08,21,07,37,14.30
2015,08,21,07,38,14.30
2015,08,21,07,39,14.30
2015,08,21,07,40,14.40
2015,08,21,07,41,14.40
2015,08,21,07,42,14.40
2015,08,21,07,43,14.50
2015,08,21,07,44,14.50
2015,08,21,07,45,14.50
2015,08,21,07,46,14.50
2015,08,21,07,47,14.50
2015,08,21,07,48,14.60
2015,08,21,07,49,14.60
2015,08,21,07,50,14.60
2015,08,21,07,51,14.60
2015,08,21,07,52,14.70
2015,08,21,07,53,14.70
2015,08,21,07,54,14.70
2015,08,21,07,55,14.70
2015,08,21,07,56,14.70
2015,08,21,07,57,14.70
2015,08,21,07,58,14.70
2015,08,21,07,59,14.80
2015,08,21,08,00,14.80
2015,08,21,08,01,14.80
2015,08,21,08,02,14.80
2015,08,21,08,03,14.80
2015,08,21,08,04,14.90
2015,08,21,08,05,14.90
2015,08,21,08,06,14.90
2015,08,21,08,07,15.00
2015,08,21,08,08,15.00
2015,08,21,08,09,15.00
2015,08,21,08,10,15.10
2015,08,21,08,11,15.10
2015,08,21,08,12,15.20
2015,08,21,08,13,15.20
2015,08,21,08,14,15.20
2015,08,21,08,15,15.30
2015,08,21,08,16,15.30
2015,08,21,08,17,15.30
2015,08,21,08,18,15.40
2015,08,21,08,19,15.40
2015,08,21,08,20,15.50
2015,08,21,08,21,15.50
2015,08,21,08,22,15.60
2015,08,21,08,23,15.50
2015,08,21,08,24,15.60
2015,08,21,08,25,15.60
2015,08,21,08,26,15.60
2015,08,21,08,27,15.60
2015,08,21,08,28,15.60
2015,08,21,08,29,15.70
2015,08,21,08,30,15.70
2015,08,21,08,31,15.70
2015,08,21,08,32,15.70
2015,08,21,08,33,15.80
2015,08,21,08,34,15.90
2015,08,21,08,35,16.00
2015,08,21,08,36,16.10
2015,08,21,08,37,16.10
2015,08,21,08,38,16.20
2015,08,21,08,39,16.20
2015,08,21,08,40,16.30
2015,08,21,08,41,16.30
2015,08,21,08,42,16.30
2015,08,21,08,43,16.30
2015,08,21,08,44,16.40
2015,08,21,08,45,16.40
2015,08,21,08,46,16.40
2015,08,21,08,47,16.40
2015,08,21,08,48,16.50
2015,08,21,08,49,16.50
2015,08,21,08,50,16.60
2015,08,21,08,51,16.60
2015,08,21,08,52,16.60
2015,08,21,08,53,16.60
2015,08,21,08,54,16.60
2015,08,21,08,55,16.70
2015,08,21,08,56,16.70
2015,08,21,08,57,16.80
2015,08,21,08,58,16.80
2015,08,21,08,59,16.90
2015,08,21,09,00,16.90
2015,08,21,09,01,16.90
2015,08,21,09,02,17.00
2015,08,21,09,03,17.00
2015,08,21,09,04,17.10
2015,08,21,09,05,17.20
2015,08,21,09,06,17.30
2015,08,21,09,07,17.30
2015,08,21,09,08,17.30
2015,08,21,09,09,17.30
2015,08,21,09,10,17.30
2015,08,21,09,11,17.30
2015,08,21,09,12,17.40
2015,08,21,09,13,17.40
2015,08,21,09,14,17.50
2015,08,21,09,15,17.60
2015,08,21,09,16,17.70
2015,08,21,09,17,17.70
2015,08,21,09,18,17.70
2015,08,21,09,19,17.60
2015,08,21,09,20,17.60
2015,08,21,09,21,17.70
2015,08,21,09,22,17.70
2015,08,21,09,23,17.70
2015,08,21,09,24,17.70
2015,08,21,09,25,17.70
2015,08,21,09,26,17.70
2015,08,21,09,27,17.80
2015,08,21,09,28,17.80
2015,08,21,09,29,17.80
2015,08,21,09,30,17.80
2015,08,21,09,31,17.80
2015,08,21,09,32,17.90
2015,08,21,09,33,17.90
2015,08,21,09,34,17.90
2015,08,21,09,35,18.00
2015,08,21,09,36,18.00
2015,08,21,09,37,18.00
2015,08,21,09,38,18.00
2015,08,21,09,39,18.00
2015,08,21,09,40,18.00
2015,08,21,09,41,18.00
2015,08,21,09,42,18.00
2015,08,21,09,43,18.00
2015,08,21,09,44,18.10
2015,08,21,09,45,18.10
2015,08,21,09,46,18.10
2015,08,21,09,47,18.20
2015,08,21,09,48,18.20
2015,08,21,09,49,18.30
2015,08,21,09,50,18.30
2015,08,21,09,51,18.40
2015,08,21,09,52,18.30
2015,08,21,09,53,18.30
2015,08,21,09,54,18.30
2015,08,21,09,55,18.30
2015,08,21,09,56,18.30
2015,08,21,09,57,18.30
2015,08,21,09,58,18.30
2015,08,21,09,59,18.40
2015,08,21,10,00,18.40
2015,08,21,10,01,18.40
2015,08,21,10,02,18.50
2015,08,21,10,03,18.50
2015,08,21,10,04,18.60
2015,08,21,10,05,18.70
2015,08,21,10,06,18.80
2015,08,21,10,07,18.90
2015,08,21,10,08,18.90
2015,08,21,10,09,18.90
2015,08,21,10,10,18.90
2015,08,21,10,11,18.90
2015,08,21,10,12,18.80
2015,08,21,10,13,18.80
2015,08,21,10,14,18.80
2015,08,21,10,15,18.80
2015,08,21,10,16,18.90
2015,08,21,10,17,18.90
2015,08,21,10,18,18.90
2015,08,21,10,19,18.90
2015,08,21,10,20,19.00
2015,08,21,10,21,19.00
2015,08,21,10,22,19.20
2015,08,21,10,23,19.20
2015,08,21,10,24,19.40
2015,08,21,10,25,19.40
2015,08,21,10,26,19.50
2015,08,21,10,27,19.40
2015,08,21,10,28,19.30
2015,08,21,10,29,19.30
2015,08,21,10,30,19.30
2015,08,21,10,31,19.40
2015,08,21,10,32,19.50
2015,08,21,10,33,19.50
2015,08,21,10,34,19.60
2015,08,21,10,35,19.60
2015,08,21,10,36,19.70
2015,08,21,10,37,19.70
2015,08,21,10,38,19.70
2015,08,21,10,39,19.70
2015,08,21,10,40,19.50
2015,08,21,10,41,19.40
2015,08,21,10,42,19.40
2015,08,21,10,43,19.30
2015,08,21,10,44,19.20
2015,08,21,10,45,19.10
2015,08,21,10,46,19.10
2015,08,21,10,47,19.10
2015,08,21,10,48,19.20
2015,08,21,10,49,19.20
2015,08,21,10,50,19.20
2015,08,21,10,51,19.20
2015,08,21,10,52,19.30
2015,08,21,10,53,19.30
2015,08,21,10,54,19.30
2015,08,21,10,55,19.30
2015,08,21,10,56,19.30
2015,08,21,10,57,19.30
2015,08,21,10,58,19.30
2015,08,21,10,59,19.30
2015,08,21,11,00,19.20
2015,08,21,11,01,19.20
2015,08,21,11,02,19.10
2015,08,21,11,03,19.10
2015,08,21,11,04,19.10
2015,08,21,11,05,19.10
2015,08,21,11,06,19.10
2015,08,21,11,07,19.10
2015,08,21,11,08,19.00
2015,08,21,11,09,19.00
2015,08,21,11,10,18.80
2015,08,21,11,11,18.70
2015,08,21,11,12,18.70
2015,08,21,11,13,18.70
2015,08,21,11,14,18.70
2015,08,21,11,15,18.70
2015,08,21,11,16,18.80
2015,08,21,11,17,18.80
2015,08,21,11,18,18.80
2015,08,21,11,19,18.80
2015,08,21,11,20,18.90
2015,08,21,11,21,18.90
2015,08,21,11,22,18.90
2015,08,21,11,23,18.90
2015,08,21,11,24,18.90
2015,08,21,11,25,19.00
2015,08,21,11,26,19.00
2015,08,21,11,27,19.10
2015,08,21,11,28,19.10
2015,08,21,11,29,19.10
2015,08,21,11,30,19.10
2015,08,21,11,31,19.10
2015,08,21,11,32,19.10
2015,08,21,11,33,19.20
2015,08,21,11,34,19.20
2015,08,21,11,35,19.30
2015,08,21,11,36,19.30
2015,08,21,11,37,19.30
2015,08,21,11,38,19.20
2015,08,21,11,39,19.20
2015,08,21,11,40,19.20
2015,08,21,11,41,19.20
2015,08,21,11,42,19.20
2015,08,21,11,43,19.20
2015,08,21,11,44,19.30
2015,08,21,11,45,19.30
2015,08,21,11,46,19.30
2015,08,21,11,47,19.40
2015,08,21,11,48,19.40
2015,08,21,11,49,19.40
2015,08,21,11,50,19.40
2015,08,21,11,51,19.40
2015,08,21,11,52,19.40
2015,08,21,11,53,19.50
2015,08,21,11,54,19.60
2015,08,21,11,55,19.60
2015,08,21,11,56,19.60
2015,08,21,11,57,19.60
2015,08,21,11,58,19.70
2015,08,21,11,59,19.70
2015,08,21,12,00,19.70
2015,08,21,12,01,19.70
2015,08,21,12,02,19.70
2015,08,21,12,03,19.70
2015,08,21,12,04,19.80
2015,08,21,12,05,19.90
2015,08,21,12,06,19.90
2015,08,21,12,07,19.80
2015,08,21,12,08,19.80
2015,08,21,12,09,19.70
2015,08,21,12,10,19.70
2015,08,21,12,11,19.70
2015,08,21,12,12,19.70
2015,08,21,12,13,19.70
2015,08,21,12,14,19.70
2015,08,21,12,15,19.70
2015,08,21,12,16,19.70
2015,08,21,12,17,19.80
2015,08,21,12,18,19.80
2015,08,21,12,19,19.90
2015,08,21,12,20,19.90
2015,08,21,12,21,19.90
2015,08,21,12,22,19.90
2015,08,21,12,23,19.80
2015,08,21,12,24,19.90
2015,08,21,12,25,19.80
2015,08,21,12,26,19.80
2015,08,21,12,27,19.90
2015,08,21,12,28,19.90
2015,08,21,12,29,19.90
2015,08,21,12,30,19.90
2015,08,21,12,31,19.90
2015,08,21,12,32,19.90
2015,08,21,12,33,20.00
2015,08,21,12,34,20.10
2015,08,21,12,35,20.10
2015,08,21,12,36,20.20
2015,08,21,12,37,20.20
2015,08,21,12,38,20.30
2015,08,21,12,39,20.30
2015,08,21,12,40,20.20
2015,08,21,12,41,20.20
2015,08,21,12,42,20.20
2015,08,21,12,43,20.30
2015,08,21,12,44,20.30
2015,08,21,12,45,20.40
2015,08,21,12,46,20.40
2015,08,21,12,47,20.40
2015,08,21,12,48,20.40
2015,08,21,12,49,20.50
2015,08,21,12,50,20.60
2015,08,21,12,51,20.60
2015,08,21,12,52,20.60
2015,08,21,12,53,20.60
2015,08,21,12,54,20.50
2015,08,21,12,55,20.60
2015,08,21,12,56,20.60
2015,08,21,12,57,20.60
2015,08,21,12,58,20.70
2015,08,21,12,59,20.70
2015,08,21,13,00,20.70
2015,08,21,13,01,20.70
2015,08,21,13,02,20.70
2015,08,21,13,03,20.70
2015,08,21,13,04,20.70
2015,08,21,13,05,20.80
2015,08,21,13,06,20.80
2015,08,21,13,07,20.80
2015,08,21,13,08,20.90
2015,08,21,13,09,20.90
2015,08,21,13,10,20.80
2015,08,21,13,11,20.80
2015,08,21,13,12,20.80
2015,08,21,13,13,20.80
2015,08,21,13,14,20.80
2015,08,21,13,15,20.80
2015,08,21,13,16,20.90
2015,08,21,13,17,20.90
2015,08,21,13,18,20.90
2015,08,21,13,19,20.90
2015,08,21,13,20,20.90
2015,08,21,13,21,20.90
2015,08,21,13,22,21.00
2015,08,21,13,23,21.00
2015,08,21,13,24,21.10
2015,08,21,13,25,21.20
2015,08,21,13,26,21.40
2015,08,21,13,27,21.40
2015,08,21,13,28,21.50
2015,08,21,13,29,21.60
2015,08,21,13,30,21.60
2015,08,21,13,31,21.60
2015,08,21,13,32,21.60
2015,08,21,13,33,21.60
2015,08,21,13,34,21.50
2015,08,21,13,35,21.50
2015,08,21,13,36,21.40
2015,08,21,13,37,21.30
2015,08,21,13,38,21.30
2015,08,21,13,39,21.30
2015,08,21,13,40,21.20
2015,08,21,13,41,21.10
2015,08,21,13,42,21.10
2015,08,21,13,43,21.10
2015,08,21,13,44,21.20
2015,08,21,13,45,21.10
2015,08,21,13,46,21.10
2015,08,21,13,47,21.00
2015,08,21,13,48,21.00
2015,08,21,13,49,21.00
2015,08,21,13,50,21.00
2015,08,21,13,51,21.00
2015,08,21,13,52,21.00
2015,08,21,13,53,21.00
2015,08,21,13,54,21.10
2015,08,21,13,55,21.00
2015,08,21,13,56,21.00
2015,08,21,13,57,20.80
2015,08,21,13,58,20.80
2015,08,21,13,59,20.90
2015,08,21,14,00,20.90
2015,08,21,14,01,21.00
2015,08,21,14,02,21.00
2015,08,21,14,03,21.10
2015,08,21,14,04,21.10
2015,08,21,14,05,21.10
2015,08,21,14,06,21.10
2015,08,21,14,07,21.10
2015,08,21,14,08,21.10
2015,08,21,14,09,21.10
2015,08,21,14,10,21.10
2015,08,21,14,11,21.10
2015,08,21,14,12,21.10
2015,08,21,14,13,21.10
2015,08,21,14,14,21.10
2015,08,21,14,15,21.10
2015,08,21,14,16,21.10
2015,08,21,14,17,21.10
2015,08,21,14,18,21.10
2015,08,21,14,19,21.10
2015,08,21,14,20,21.20
2015,08,21,14,21,21.20
2015,08,21,14,22,21.20
2015,08,21,14,23,21.20
2015,08,21,14,24,21.20
2015,08,21,14,25,21.30
2015,08,21,14,26,21.30
2015,08,21,14,27,21.40
2015,08,21,14,28,21.40
2015,08,21,14,29,21.40
2015,08,21,14,30,21.40
2015,08,21,14,31,21.40
2015,08,21,14,32,21.40
2015,08,21,14,33,21.40
2015,08,21,14,34,21.40
2015,08,21,14,35,21.40
2015,08,21,14,36,21.30
2015,08,21,14,37,21.30
2015,08,21,14,38,21.40
2015,08,21,14,39,21.40
2015,08,21,14,40,21.40
2015,08,21,14,41,21.40
2015,08,21,14,42,21.40
2015,08,21,14,43,21.40
2015,08,21,14,44,21.40
2015,08,21,14,45,21.30
2015,08,21,14,46,21.30
2015,08,21,14,47,21.30
2015,08,21,14,48,21.30
2015,08,21,14,49,21.30
2015,08,21,14,50,21.30
2015,08,21,14,51,21.30
2015,08,21,14,52,21.30
2015,08,21,14,53,21.30
2015,08,21,14,54,21.30
2015,08,21,14,55,21.30
2015,08,21,14,56,21.40
2015,08,21,14,57,21.40
2015,08,21,14,58,21.40
2015,08,21,14,59,21.50
2015,08,21,15,00,21.50
2015,08,21,15,01,21.50
2015,08,21,15,02,21.60
2015,08,21,15,03,21.60
2015,08,21,15,04,21.60
2015,08,21,15,05,21.60
2015,08,21,15,06,21.60
2015,08,21,15,07,21.60
2015,08,21,15,08,21.70
2015,08,21,15,09,21.70
2015,08,21,15,10,21.80
2015,08,21,15,11,21.80
2015,08,21,15,12,21.80
2015,08,21,15,13,21.90
2015,08,21,15,14,21.90
2015,08,21,15,15,21.90
2015,08,21,15,16,21.90
2015,08,21,15,17,21.90
2015,08,21,15,18,21.90
2015,08,21,15,19,21.90
2015,08,21,15,20,21.90
2015,08,21,15,21,21.90
2015,08,21,15,22,22.00
2015,08,21,15,23,22.00
2015,08,21,15,24,21.90
2015,08,21,15,25,21.90
2015,08,21,15,26,21.90
2015,08,21,15,27,21.80
2015,08,21,15,28,21.80
2015,08,21,15,29,21.80
2015,08,21,15,30,21.90
2015,08,21,15,31,21.90
2015,08,21,15,32,21.90
2015,08,21,15,33,22.00
2015,08,21,15,34,22.00
2015,08,21,15,35,22.10
2015,08,21,15,36,22.20
2015,08,21,15,37,22.30
2015,08,21,15,38,22.30
2015,08,21,15,39,22.30
2015,08,21,15,40,22.40
2015,08,21,15,41,22.30
2015,08,21,15,42,22.30
2015,08,21,15,43,22.20
2015,08,21,15,44,22.20
2015,08,21,15,45,22.20
2015,08,21,15,46,22.20
2015,08,21,15,47,22.20
2015,08,21,15,48,22.10
2015,08,21,15,49,22.00
2015,08,21,15,50,22.00
2015,08,21,15,51,22.00
2015,08,21,15,52,22.00
2015,08,21,15,53,22.00
2015,08,21,15,54,22.00
2015,08,21,15,55,22.00
2015,08,21,15,56,22.10
2015,08,21,15,57,22.10
2015,08,21,15,58,22.10
2015,08,21,15,59,22.10
2015,08,21,16,00,22.10
2015,08,21,16,01,22.10
2015,08,21,16,02,22.00
2015,08,21,16,03,22.00
2015,08,21,16,04,22.00
2015,08,21,16,05,22.00
2015,08,21,16,06,22.00
2015,08,21,16,07,22.10
2015,08,21,16,08,22.30
2015,08,21,16,09,22.30
2015,08,21,16,10,22.40
2015,08,21,16,11,22.40
2015,08,21,16,12,22.30
2015,08,21,16,13,22.30
2015,08,21,16,14,22.30
2015,08,21,16,15,22.30
2015,08,21,16,16,22.30
2015,08,21,16,17,22.30
2015,08,21,16,18,22.30
2015,08,21,16,19,22.30
2015,08,21,16,20,22.30
2015,08,21,16,21,22.30
2015,08,21,16,22,22.30
2015,08,21,16,23,22.40
2015,08,21,16,24,22.40
2015,08,21,16,25,22.50
2015,08,21,16,26,22.50
2015,08,21,16,27,22.40
2015,08,21,16,28,22.40
2015,08,21,16,29,22.40
2015,08,21,16,30,22.30
2015,08,21,16,31,22.30
2015,08,21,16,32,22.30
2015,08,21,16,33,22.30
2015,08,21,16,34,22.30
2015,08,21,16,35,22.30
2015,08,21,16,36,22.30
2015,08,21,16,37,22.40
2015,08,21,16,38,22.40
2015,08,21,16,39,22.40
2015,08,21,16,40,22.40
2015,08,21,16,41,22.40
2015,08,21,16,42,22.40
2015,08,21,16,43,22.40
2015,08,21,16,44,22.40
2015,08,21,16,45,22.40
2015,08,21,16,46,22.40
2015,08,21,16,47,22.40
2015,08,21,16,48,22.40
2015,08,21,16,49,22.50
2015,08,21,16,50,22.60
2015,08,21,16,51,22.60
2015,08,21,16,52,22.60
2015,08,21,16,53,22.60
2015,08,21,16,54,22.60
2015,08,21,16,55,22.60
2015,08,21,16,56,22.70
2015,08,21,16,57,22.70
2015,08,21,16,58,22.70
2015,08,21,16,59,22.70
2015,08,21,17,00,22.80
2015,08,21,17,01,22.80
2015,08,21,17,02,22.80
2015,08,21,17,03,22.80
2015,08,21,17,04,22.80
2015,08,21,17,05,22.70
2015,08,21,17,06,22.70
2015,08,21,17,07,22.70
2015,08,21,17,08,22.60
2015,08,21,17,09,22.60
2015,08,21,17,10,22.60
2015,08,21,17,11,22.50
2015,08,21,17,12,22.50
2015,08,21,17,13,22.50
2015,08,21,17,14,22.50
2015,08,21,17,15,22.60
2015,08,21,17,16,22.60
2015,08,21,17,17,22.60
2015,08,21,17,18,22.60
2015,08,21,17,19,22.60